KAC107 OEJN-OKKK

Flight info

Callsign KAC107
Flight time 1h 31m
Altitude 35000
Route EGREP2W EGREP B417 HFR A788 KFR DCT
Aircraft A320/M-SDE3FGHIRWY/LB1

Departure

Time 2026-04-28 20:19
Airport King Abdulaziz International Airport (OEJN)

Arrival

Time 2026-04-28 21:50
Airport Kuwait International Airport (OKKK)
Time Latitude Longitude Altitude Speed Heading
2026-04-28 19:37 21.67143 39.16563 31 ft 0 kts 189°
2026-04-28 19:57 21.67143 39.16564 30 ft 0 kts 189°
2026-04-28 20:05 21.67148 39.16564 30 ft 3 kts 189°
2026-04-28 20:05 21.67175 39.16569 30 ft 4 kts 189°
2026-04-28 20:05 21.67201 39.16574 30 ft 4 kts 189°
2026-04-28 20:06 21.67223 39.16578 30 ft 4 kts 202°
2026-04-28 20:06 21.67236 39.16587 30 ft 4 kts 244°
2026-04-28 20:06 21.67239 39.16613 30 ft 4 kts 279°
2026-04-28 20:06 21.67234 39.16643 30 ft 4 kts 281°
2026-04-28 20:07 21.67229 39.16671 30 ft 4 kts 282°
2026-04-28 20:07 21.67227 39.16681 30 ft 4 kts 281°
2026-04-28 20:07 21.67224 39.16693 30 ft 0 kts 279°
2026-04-28 20:13 21.67226 39.16684 30 ft 4 kts 279°
2026-04-28 20:14 21.67230 39.16659 30 ft 3 kts 280°
2026-04-28 20:14 21.67235 39.16632 30 ft 7 kts 281°
2026-04-28 20:14 21.67248 39.16559 30 ft 13 kts 281°
2026-04-28 20:14 21.67328 39.16490 30 ft 18 kts 337°
2026-04-28 20:15 21.67454 39.16442 30 ft 20 kts 341°
2026-04-28 20:15 21.67557 39.16369 30 ft 19 kts 281°
2026-04-28 20:15 21.67519 39.16232 30 ft 20 kts 251°
2026-04-28 20:15 21.67405 39.16184 30 ft 23 kts 162°
2026-04-28 20:16 21.67234 39.16250 31 ft 29 kts 160°
2026-04-28 20:16 21.67028 39.16330 31 ft 34 kts 160°
2026-04-28 20:16 21.66793 39.16423 32 ft 38 kts 159°
2026-04-28 20:16 21.66535 39.16523 32 ft 40 kts 160°
2026-04-28 20:17 21.66314 39.16612 31 ft 26 kts 161°
2026-04-28 20:17 21.66195 39.16633 31 ft 12 kts 210°
2026-04-28 20:17 21.66158 39.16563 31 ft 10 kts 249°
2026-04-28 20:17 21.66146 39.16501 31 ft 7 kts 278°
2026-04-28 20:18 21.66175 39.16469 30 ft 5 kts 331°
2026-04-28 20:18 21.66221 39.16450 30 ft 26 kts 341°
2026-04-28 20:18 21.66839 39.16206 38 ft 111 kts 340°
2026-04-28 20:18 21.67732 39.15857 38 ft 159 kts 340°
2026-04-28 20:19 21.68809 39.15458 582 ft 159 kts 342°
2026-04-28 20:19 21.69842 39.15067 1291 ft 159 kts 341°
2026-04-28 20:19 21.70929 39.14633 1651 ft 177 kts 341°
2026-04-28 20:19 21.72160 39.14138 1871 ft 200 kts 338°
2026-04-28 20:20 21.73538 39.13581 2082 ft 224 kts 337°
2026-04-28 20:20 21.75072 39.12964 2383 ft 247 kts 337°
2026-04-28 20:20 21.76747 39.12292 2885 ft 262 kts 338°
2026-04-28 20:20 21.78457 39.11614 3733 ft 263 kts 339°
2026-04-28 20:21 21.80185 39.10933 4513 ft 266 kts 339°
2026-04-28 20:21 21.81942 39.10241 5259 ft 271 kts 338°
2026-04-28 20:21 21.83728 39.09535 5840 ft 277 kts 338°
2026-04-28 20:21 21.85538 39.08820 5982 ft 277 kts 338°
2026-04-28 20:22 21.87322 39.08114 6006 ft 277 kts 338°
2026-04-28 20:22 21.89136 39.07396 6011 ft 277 kts 338°
2026-04-28 20:22 21.90927 39.06643 6012 ft 277 kts 335°
2026-04-28 20:22 21.92695 39.05819 6011 ft 276 kts 334°
2026-04-28 20:23 21.94450 39.04969 6011 ft 276 kts 334°
2026-04-28 20:23 21.96201 39.04113 6006 ft 276 kts 334°
2026-04-28 20:23 21.97995 39.03341 6164 ft 283 kts 346°
2026-04-28 20:23 21.99962 39.03272 6930 ft 288 kts
2026-04-28 20:24 22.01827 39.04093 7634 ft 295 kts 35°
2026-04-28 20:24 22.03208 39.05751 8289 ft 302 kts 58°
2026-04-28 20:24 22.04298 39.07700 8974 ft 305 kts 59°
2026-04-28 20:24 22.05378 39.09646 9606 ft 308 kts 59°
2026-04-28 20:25 22.06486 39.11640 10241 ft 314 kts 59°
2026-04-28 20:25 22.07649 39.13730 10403 ft 336 kts 59°
2026-04-28 20:25 22.08888 39.15950 10625 ft 353 kts 59°
2026-04-28 20:25 22.10174 39.18248 11150 ft 361 kts 59°
2026-04-28 20:26 22.11482 39.20581 11769 ft 365 kts 59°
2026-04-28 20:26 22.12802 39.22933 12377 ft 369 kts 60°
2026-04-28 20:26 22.14135 39.25312 12992 ft 373 kts 60°
2026-04-28 20:26 22.15488 39.27728 13586 ft 377 kts 60°
2026-04-28 20:27 22.16852 39.30166 14165 ft 381 kts 60°
2026-04-28 20:27 22.18214 39.32603 14731 ft 385 kts 60°
2026-04-28 20:27 22.19600 39.35092 15274 ft 389 kts 60°
2026-04-28 20:27 22.21001 39.37611 15797 ft 394 kts 60°
2026-04-28 20:28 22.22420 39.40160 16316 ft 398 kts 60°
2026-04-28 20:28 22.23852 39.42726 16846 ft 401 kts 60°
2026-04-28 20:28 22.25302 39.45323 17349 ft 406 kts 60°
2026-04-28 20:28 22.26762 39.47941 17841 ft 410 kts 60°
2026-04-28 20:29 22.28239 39.50597 18339 ft 413 kts 60°
2026-04-28 20:29 22.29724 39.53268 18814 ft 417 kts 60°
2026-04-28 20:29 22.31230 39.55972 19268 ft 422 kts 60°
2026-04-28 20:29 22.32749 39.58702 19720 ft 425 kts 60°
2026-04-28 20:30 22.34281 39.61457 20148 ft 429 kts 60°
2026-04-28 20:30 22.35828 39.64238 20574 ft 433 kts 60°
2026-04-28 20:30 22.37385 39.67040 20959 ft 437 kts 60°
2026-04-28 20:30 22.38940 39.69843 21334 ft 441 kts 60°
2026-04-28 20:31 22.40524 39.72702 21721 ft 444 kts 59°
2026-04-28 20:31 22.42119 39.75582 22103 ft 448 kts 59°
2026-04-28 20:31 22.43724 39.78486 22482 ft 452 kts 59°
2026-04-28 20:31 22.45366 39.81414 22823 ft 456 kts 56°
2026-04-28 20:32 22.47320 39.84127 23190 ft 459 kts 46°
2026-04-28 20:32 22.49646 39.86502 23552 ft 461 kts 39°
2026-04-28 20:32 22.52068 39.88794 23883 ft 464 kts 39°
2026-04-28 20:32 22.54502 39.91110 24252 ft 467 kts 39°
2026-04-28 20:33 22.56912 39.93416 24587 ft 470 kts 39°
2026-04-28 20:33 22.59364 39.95772 24922 ft 472 kts 39°
2026-04-28 20:33 22.61844 39.98150 25262 ft 475 kts 39°
2026-04-28 20:33 22.64323 40.00523 25616 ft 477 kts 39°
2026-04-28 20:34 22.66810 40.02901 25945 ft 479 kts 39°
2026-04-28 20:34 22.69315 40.05293 26247 ft 481 kts 39°
2026-04-28 20:34 22.71835 40.07701 26551 ft 483 kts 38°
2026-04-28 20:34 22.74359 40.10116 26839 ft 485 kts 38°
2026-04-28 20:35 22.76868 40.12519 27100 ft 487 kts 38°
2026-04-28 20:35 22.79417 40.14962 27365 ft 489 kts 38°
2026-04-28 20:35 22.81972 40.17415 27650 ft 491 kts 38°
2026-04-28 20:35 22.84537 40.19880 27893 ft 494 kts 38°
2026-04-28 20:36 22.87114 40.22355 28141 ft 496 kts 38°
2026-04-28 20:36 22.89700 40.24842 28377 ft 497 kts 38°
2026-04-28 20:36 22.92296 40.27340 28604 ft 499 kts 38°
2026-04-28 20:36 22.94904 40.29848 28824 ft 502 kts 38°
2026-04-28 20:37 22.97493 40.32343 29033 ft 504 kts 38°
2026-04-28 20:37 23.00114 40.34875 29251 ft 505 kts 37°
2026-04-28 20:37 23.02753 40.37421 29450 ft 508 kts 37°
2026-04-28 20:37 23.05395 40.39965 29642 ft 510 kts 37°
2026-04-28 20:38 23.08059 40.42532 29827 ft 512 kts 37°
2026-04-28 20:38 23.10721 40.45101 30019 ft 514 kts 37°
2026-04-28 20:38 23.13397 40.47684 30181 ft 516 kts 37°
2026-04-28 20:38 23.16093 40.50284 30352 ft 518 kts 37°
2026-04-28 20:39 23.18789 40.52886 30510 ft 520 kts 37°
2026-04-28 20:39 23.21490 40.55502 30697 ft 521 kts 37°
2026-04-28 20:39 23.24197 40.58127 30863 ft 522 kts 37°
2026-04-28 20:39 23.26910 40.60754 31092 ft 522 kts 38°
2026-04-28 20:40 23.29579 40.63433 31378 ft 522 kts 40°
2026-04-28 20:40 23.32157 40.66222 31658 ft 522 kts 42°
2026-04-28 20:40 23.34659 40.69094 31921 ft 523 kts 44°
2026-04-28 20:40 23.37090 40.71976 32179 ft 523 kts 44°
2026-04-28 20:41 23.39543 40.74897 32459 ft 522 kts 44°
2026-04-28 20:41 23.42006 40.77793 32700 ft 521 kts 43°
2026-04-28 20:41 23.44490 40.80664 32969 ft 520 kts 43°
2026-04-28 20:41 23.46993 40.83512 33243 ft 519 kts 43°
2026-04-28 20:42 23.49502 40.86340 33526 ft 518 kts 43°
2026-04-28 20:42 23.52007 40.89159 33808 ft 517 kts 43°
2026-04-28 20:42 23.54505 40.91978 34073 ft 516 kts 43°
2026-04-28 20:42 23.56997 40.94801 34332 ft 515 kts 43°
2026-04-28 20:43 23.59476 40.97630 34579 ft 515 kts 43°
2026-04-28 20:43 23.61917 41.00426 34783 ft 515 kts 43°
2026-04-28 20:43 23.64381 41.03255 34976 ft 515 kts 43°
2026-04-28 20:44 23.69282 41.08884 35035 ft 507 kts 43°
2026-04-28 20:44 23.74140 41.14456 35035 ft 506 kts 43°
2026-04-28 20:45 23.79007 41.20026 35036 ft 506 kts 43°
2026-04-28 20:45 23.83871 41.25590 35035 ft 506 kts 43°
2026-04-28 20:46 23.88692 41.31134 35035 ft 506 kts 43°
2026-04-28 20:46 23.93536 41.36708 35034 ft 506 kts 43°
2026-04-28 20:47 23.98383 41.42287 35034 ft 506 kts 43°
2026-04-28 20:47 24.03238 41.47871 35030 ft 506 kts 43°
2026-04-28 20:48 24.08091 41.53469 35017 ft 507 kts 43°
2026-04-28 20:48 24.12943 41.59090 35014 ft 508 kts 43°
2026-04-28 20:49 24.17802 41.64724 35015 ft 508 kts 43°
2026-04-28 20:49 24.22629 41.70314 35018 ft 508 kts 43°
2026-04-28 20:50 24.27493 41.75946 35011 ft 508 kts 43°
2026-04-28 20:50 24.32349 41.81581 35014 ft 508 kts 42°
2026-04-28 20:51 24.37534 41.86777 35020 ft 505 kts 37°
2026-04-28 20:51 24.42799 41.91883 35012 ft 505 kts 37°
2026-04-28 20:52 24.48065 41.97006 35015 ft 505 kts 37°
2026-04-28 20:52 24.53288 42.02105 35001 ft 505 kts 37°
2026-04-28 20:53 24.60299 42.08950 35004 ft 506 kts 37°
2026-04-28 20:53 24.65564 42.14096 34984 ft 506 kts 37°
2026-04-28 20:54 24.70830 42.19261 34983 ft 507 kts 37°
2026-04-28 20:54 24.76093 42.24419 34979 ft 508 kts 37°
2026-04-28 20:55 24.81390 42.29611 34979 ft 509 kts 37°
2026-04-28 20:55 24.86690 42.34818 34981 ft 510 kts 37°
2026-04-28 20:56 24.91954 42.39999 34979 ft 511 kts 37°
2026-04-28 20:56 24.97257 42.45226 34978 ft 512 kts 37°
2026-04-28 20:57 25.02584 42.50476 34977 ft 513 kts 37°
2026-04-28 20:57 25.07905 42.55733 34978 ft 514 kts 37°
2026-04-28 20:58 25.13242 42.61017 34983 ft 516 kts 37°
2026-04-28 20:58 25.18591 42.66319 34979 ft 516 kts 37°
2026-04-28 20:59 25.23933 42.71611 34980 ft 517 kts 37°
2026-04-28 20:59 25.29295 42.76931 34982 ft 518 kts 37°
2026-04-28 21:00 25.34622 42.82229 34984 ft 519 kts 37°
2026-04-28 21:00 25.39993 42.87572 35003 ft 519 kts 37°
2026-04-28 21:01 25.45359 42.92925 34986 ft 519 kts 37°
2026-04-28 21:01 25.50726 42.98288 34985 ft 520 kts 37°
2026-04-28 21:02 25.56108 43.03659 34983 ft 520 kts 37°
2026-04-28 21:02 25.61484 43.09027 34983 ft 520 kts 37°
2026-04-28 21:03 25.66851 43.14400 34980 ft 520 kts 37°
2026-04-28 21:03 25.72228 43.19781 34974 ft 521 kts 37°
2026-04-28 21:04 25.77605 43.25171 34971 ft 521 kts 37°
2026-04-28 21:04 25.82980 43.30569 34970 ft 522 kts 37°
2026-04-28 21:05 25.88362 43.35989 34967 ft 522 kts 37°
2026-04-28 21:05 25.93749 43.41424 34965 ft 523 kts 37°
2026-04-28 21:06 25.99137 43.46856 34964 ft 523 kts 37°
2026-04-28 21:06 26.04499 43.52270 34960 ft 524 kts 37°
2026-04-28 21:07 26.09905 43.57744 34954 ft 526 kts 37°
2026-04-28 21:07 26.15320 43.63235 34962 ft 527 kts 37°
2026-04-28 21:08 26.20740 43.68731 34962 ft 528 kts 37°
2026-04-28 21:08 26.26163 43.74238 34961 ft 528 kts 37°
2026-04-28 21:09 26.31581 43.79799 34967 ft 529 kts 39°
2026-04-28 21:09 26.36813 43.85615 34971 ft 531 kts 41°
2026-04-28 21:10 26.41937 43.91573 34974 ft 532 kts 42°
2026-04-28 21:10 26.47097 43.97496 34979 ft 532 kts 41°
2026-04-28 21:11 26.52315 44.03362 35000 ft 532 kts 40°
2026-04-28 21:11 26.57500 44.09184 34986 ft 532 kts 41°
2026-04-28 21:12 26.62706 44.15078 34999 ft 532 kts 41°
2026-04-28 21:12 26.67900 44.20987 34985 ft 533 kts 41°
2026-04-28 21:13 26.73096 44.26912 34986 ft 533 kts 41°
2026-04-28 21:13 26.78299 44.32837 34982 ft 533 kts 41°
2026-04-28 21:14 26.83505 44.38757 34978 ft 533 kts 41°
2026-04-28 21:14 26.88704 44.44685 34969 ft 534 kts 41°
2026-04-28 21:15 26.93914 44.50639 34960 ft 535 kts 41°
2026-04-28 21:15 26.99121 44.56596 34959 ft 535 kts 41°
2026-04-28 21:16 27.04346 44.62579 34953 ft 536 kts 41°
2026-04-28 21:16 27.09563 44.68568 34952 ft 536 kts 41°
2026-04-28 21:17 27.14747 44.74537 34954 ft 537 kts 41°
2026-04-28 21:17 27.19970 44.80558 34950 ft 537 kts 41°
2026-04-28 21:18 27.25189 44.86583 34945 ft 538 kts 41°
2026-04-28 21:18 27.30415 44.92611 34948 ft 538 kts 41°
2026-04-28 21:19 27.35632 44.98648 34942 ft 538 kts 41°
2026-04-28 21:19 27.40846 45.04686 34938 ft 538 kts 41°
2026-04-28 21:20 27.46028 45.10708 34941 ft 539 kts 41°
2026-04-28 21:20 27.51241 45.16766 34934 ft 539 kts 41°
2026-04-28 21:21 27.56474 45.22843 34934 ft 539 kts 40°
2026-04-28 21:21 27.61864 45.28661 34932 ft 536 kts 37°
2026-04-28 21:22 27.67440 45.34250 34931 ft 535 kts 36°
2026-04-28 21:22 27.72068 45.38898 34930 ft 536 kts 36°
2026-04-28 21:23 27.78514 45.45570 34932 ft 538 kts 37°
2026-04-28 21:23 27.83961 45.51294 34934 ft 538 kts 37°
2026-04-28 21:24 27.89442 45.57071 34926 ft 539 kts 38°
2026-04-28 21:24 27.94738 45.63116 34931 ft 542 kts 41°
2026-04-28 21:25 27.99888 45.69358 34934 ft 542 kts 42°
2026-04-28 21:25 28.05059 45.75574 34932 ft 542 kts 41°
2026-04-28 21:26 28.10264 45.81692 34924 ft 542 kts 41°
2026-04-28 21:26 28.15521 45.87831 34924 ft 542 kts 41°
2026-04-28 21:27 28.20766 45.93997 34922 ft 542 kts 41°
2026-04-28 21:27 28.25972 46.00160 34922 ft 542 kts 41°
2026-04-28 21:28 28.31165 46.06394 34922 ft 544 kts 46°
2026-04-28 21:28 28.35196 46.13712 34909 ft 551 kts 67°
2026-04-28 21:29 28.37208 46.22053 34911 ft 548 kts 83°
2026-04-28 21:29 28.38436 46.30617 34497 ft 551 kts 83°
2026-04-28 21:30 28.39051 46.34896 33584 ft 557 kts 83°
2026-04-28 21:30 28.39672 46.39239 32965 ft 554 kts 83°
2026-04-28 21:30 28.40284 46.43531 32501 ft 547 kts 83°
2026-04-28 21:30 28.40891 46.47775 32048 ft 541 kts 83°
2026-04-28 21:31 28.41495 46.51968 31593 ft 534 kts 83°
2026-04-28 21:31 28.42090 46.56109 31143 ft 527 kts 83°
2026-04-28 21:31 28.42671 46.60196 30731 ft 520 kts 83°
2026-04-28 21:31 28.43238 46.64222 30292 ft 514 kts 83°
2026-04-28 21:32 28.43796 46.68217 29870 ft 507 kts 83°
2026-04-28 21:32 28.44345 46.72146 29445 ft 501 kts 83°
2026-04-28 21:32 28.44881 46.75985 28996 ft 495 kts 83°
2026-04-28 21:32 28.45419 46.79831 28525 ft 490 kts 83°
2026-04-28 21:33 28.45952 46.83651 27844 ft 490 kts 83°
2026-04-28 21:33 28.46480 46.87465 27148 ft 490 kts 83°
2026-04-28 21:33 28.47012 46.91305 26442 ft 489 kts 83°
2026-04-28 21:33 28.47540 46.95118 25742 ft 488 kts 83°
2026-04-28 21:34 28.48067 46.98927 25043 ft 487 kts 83°
2026-04-28 21:34 28.48588 47.02722 24339 ft 484 kts 82°
2026-04-28 21:34 28.49106 47.06493 23639 ft 482 kts 82°
2026-04-28 21:34 28.49621 47.10244 22938 ft 479 kts 82°
2026-04-28 21:35 28.50133 47.13975 22219 ft 474 kts 82°
2026-04-28 21:35 28.50632 47.17618 21521 ft 458 kts 82°
2026-04-28 21:35 28.51117 47.21145 20819 ft 444 kts 82°
2026-04-28 21:35 28.51589 47.24564 20111 ft 432 kts 83°
2026-04-28 21:36 28.52045 47.27899 19422 ft 422 kts 83°
2026-04-28 21:36 28.52482 47.31124 18731 ft 413 kts 83°
2026-04-28 21:36 28.52912 47.34319 18042 ft 405 kts 83°
2026-04-28 21:36 28.53332 47.37436 17753 ft 396 kts 83°
2026-04-28 21:37 28.53748 47.40507 17495 ft 388 kts 83°
2026-04-28 21:37 28.54154 47.43517 17248 ft 381 kts 83°
2026-04-28 21:37 28.54416 47.45476 17092 ft 376 kts 83°
2026-04-28 21:37 28.54807 47.48406 16752 ft 373 kts 84°
2026-04-28 21:38 28.55196 47.51323 16353 ft 372 kts 84°
2026-04-28 21:38 28.55585 47.54230 15955 ft 371 kts 84°
2026-04-28 21:38 28.55976 47.57127 15555 ft 371 kts 84°
2026-04-28 21:38 28.56367 47.60026 15157 ft 370 kts 84°
2026-04-28 21:39 28.56753 47.62924 14759 ft 368 kts 84°
2026-04-28 21:39 28.57133 47.65800 14372 ft 368 kts 84°
2026-04-28 21:39 28.57545 47.68670 13968 ft 368 kts 83°
2026-04-28 21:39 28.58007 47.71532 13559 ft 367 kts 82°
2026-04-28 21:40 28.58497 47.74388 13193 ft 365 kts 82°
2026-04-28 21:40 28.58987 47.77200 12904 ft 360 kts 82°
2026-04-28 21:40 28.59463 47.79962 12504 ft 359 kts 82°
2026-04-28 21:40 28.59936 47.82747 12095 ft 358 kts 82°
2026-04-28 21:41 28.60399 47.85525 11666 ft 357 kts 83°
2026-04-28 21:41 28.60855 47.88296 11252 ft 355 kts 82°
2026-04-28 21:41 28.61362 47.91046 10851 ft 355 kts 74°
2026-04-28 21:41 28.62474 47.93538 10437 ft 355 kts 52°
2026-04-28 21:42 28.64283 47.95386 10210 ft 345 kts 30°
2026-04-28 21:42 28.66466 47.96451 9641 ft 344 kts
2026-04-28 21:42 28.68838 47.96837 9109 ft 344 kts
2026-04-28 21:42 28.71206 47.97179 8665 ft 341 kts
2026-04-28 21:43 28.73553 47.97531 8231 ft 338 kts
2026-04-28 21:43 28.75852 47.97880 7773 ft 337 kts
2026-04-28 21:43 28.78163 47.98236 7329 ft 333 kts
2026-04-28 21:43 28.80459 47.98592 6865 ft 332 kts
2026-04-28 21:44 28.82737 47.98944 6400 ft 329 kts
2026-04-28 21:44 28.84991 47.99290 5934 ft 326 kts
2026-04-28 21:44 28.87235 47.99626 5465 ft 323 kts
2026-04-28 21:44 28.89454 47.99962 4996 ft 321 kts
2026-04-28 21:45 28.91659 48.00300 4516 ft 318 kts
2026-04-28 21:45 28.93843 48.00636 4040 ft 315 kts
2026-04-28 21:45 28.96010 48.00964 3553 ft 313 kts
2026-04-28 21:45 28.98153 48.01288 3125 ft 308 kts
2026-04-28 21:46 29.00224 48.01605 3025 ft 291 kts
2026-04-28 21:46 29.02164 48.01905 3029 ft 271 kts
2026-04-28 21:46 29.03978 48.02187 3033 ft 252 kts
2026-04-28 21:46 29.05642 48.02444 3030 ft 236 kts
2026-04-28 21:47 29.07251 48.02381 2715 ft 229 kts 342°
2026-04-28 21:47 29.08712 48.01691 2421 ft 226 kts 334°
2026-04-28 21:47 29.10133 48.00932 2126 ft 224 kts 334°
2026-04-28 21:47 29.11508 48.00202 1830 ft 212 kts 335°
2026-04-28 21:48 29.12792 47.99520 1557 ft 196 kts 336°
2026-04-28 21:48 29.13993 47.98883 1321 ft 183 kts 336°
2026-04-28 21:48 29.15103 47.98294 1088 ft 168 kts 336°
2026-04-28 21:48 29.16118 47.97756 849 ft 154 kts 336°
2026-04-28 21:49 29.17065 47.97253 656 ft 145 kts 336°
2026-04-28 21:49 29.17965 47.96772 431 ft 141 kts 336°
2026-04-28 21:49 29.18853 47.96297 264 ft 141 kts 336°
2026-04-28 21:49 29.19717 47.95839 184 ft 127 kts 336°
2026-04-28 21:50 29.20308 47.95530 180 ft 65 kts 335°
2026-04-28 21:50 29.20637 47.95358 183 ft 47 kts 335°
2026-04-28 21:50 29.20910 47.95210 181 ft 41 kts 334°
2026-04-28 21:50 29.21155 47.95091 182 ft 36 kts 341°
2026-04-28 21:51 29.21388 47.95058 185 ft 32 kts
2026-04-28 21:51 29.21558 47.95065 187 ft 22 kts
2026-04-28 21:51 29.21711 47.95032 184 ft 23 kts 338°
2026-04-28 21:51 29.21862 47.94955 178 ft 26 kts 336°
2026-04-28 21:52 29.21980 47.95050 165 ft 23 kts 65°
2026-04-28 21:52 29.22054 47.95221 162 ft 25 kts 64°
2026-04-28 21:52 29.22130 47.95410 161 ft 27 kts 66°
2026-04-28 21:52 29.22208 47.95605 160 ft 27 kts 66°
2026-04-28 21:53 29.22290 47.95804 160 ft 28 kts 64°
2026-04-28 21:53 29.22376 47.96004 160 ft 28 kts 64°
2026-04-28 21:53 29.22456 47.96211 160 ft 29 kts 66°
2026-04-28 21:53 29.22541 47.96417 161 ft 28 kts 64°
2026-04-28 21:54 29.25041 47.95999 167 ft 0 kts 63°